Location: �perlecques
(50.8057°N, 2.1521°E)
Time: 18:51:51
(UTC+00:00)

Vanguard 3 - Pass Details

Date: 05 August 2021
Orbit: 510 x 3260 km, 33.3° (Epoch: 17 September)

Event Time Altitude Azimuth Distance (km) Brightness Sun altitude
Rises 19:37:49 0° 258° (WSW) 5,867 12.4 -1.9°
Reaches altitude 10° 19:41:33 10° 252° (WSW) 5,182 11.9 -2.4°
Maximum altitude 19:56:11 41° 190° (S) 4,019 10.5 -4.4°
Drops below altitude 10° 20:13:38 10° 130° (SE) 6,103 10.9 -6.7°
Enters shadow 20:14:55 - 128° (SE) 6,325 11.0 -6.8°
